[[{"header":{"parameterUnit":"m.s-1","parameterCategory":1,"la1":30.2991,"la2":30.254,"lo1":-89.0895,"lo2":-89.0444,"dy":0.0017,"dx":0.0017,"nx":28,"ny":28,"refTime":"2023-10-01T21:00:00:Z","depth":0,"parameterNumber":2,"parameterNumberName":"U-component_of_WINDS"},"data":[0,0,0,0,0,0,0,0,0,0,0,0,0,0,0,0,0,0,0,0,0,0,0,0,0,0,0,0,0,0,0,0,0,0,0,0,0,0,0,0,0,0,0,0,0,0,0,0,0,0,0,0,0,0,0,0,0,0,-3.9659,-3.966,0,-3.9758,-3.9759,-3.976,-3.9649,-3.9645,-3.9641,-3.9637,-3.9737,-3.9743,-3.975,0,0,0,0,0,0,0,0,0,0,0,0,0,-3.9373,-3.9379,-3.9659,-3.966,-3.9661,-3.9758,-3.9759,-3.976,-3.965,-3.9645,-3.964,-3.9635,-3.9735,-3.9742,-3.975,0,0,0,0,0,0,0,0,0,0,0,0,0,-3.9487,-3.9381,-3.9659,-3.9618,-3.9615,-3.9757,-3.9759,-3.9761,-3.9651,-3.9645,-3.9638,-3.9633,-3.9732,-3.9742,-3.9751,-3.9938,0,0,-3.9782,-3.9786,0,0,0,0,0,0,0,0,-3.9481,-3.9498,-3.9623,-3.9621,-3.9618,-3.9685,-3.9695,-3.982,-3.9653,-3.9638,-3.9637,-3.963,-3.9725,-3.9735,-3.9767,-3.9943,-3.9947,-3.9782,-3.9788,-3.9793,-3.9795,0,0,0,0,0,0,0,-3.9473,-3.9493,-3.9698,-3.9625,-3.9622,-3.9594,-3.9604,-3.9718,-3.9715,-3.9638,-3.9631,-3.9644,-3.9722,-3.9758,-3.9768,-3.9948,-3.9782,-3.9791,-3.9797,-3.9801,-4.0282,-4.0289,0,0,0,0,0,0,-3.947,-3.9487,-3.9695,-3.9701,-3.9533,-3.9605,-3.9615,-3.967,-3.9713,-3.9714,-3.9649,-3.9638,-3.9744,-3.9757,-3.9772,-3.9993,-3.9793,-3.9802,-3.9807,-4.0276,-4.0284,-4.0291,0,0,0,0,0,0,-3.9464,-3.949,-3.9691,-3.9592,-3.9615,-3.9616,-3.9679,-3.9675,-3.971,-3.9722,-3.972,-3.9686,-3.974,-3.9758,-3.9898,-3.9995,-3.9806,-3.9815,-4.0267,-4.0278,-4.0288,-4.0438,0,0,0,0,0,0,-3.9457,-3.9488,-3.956,-3.9594,-3.9621,-3.9816,-3.9685,-3.9681,-3.9728,-3.9715,-3.9756,-3.9757,-3.9736,-3.9884,-3.9907,-4.0005,-3.9823,-4.0259,-4.0272,-4.0284,-4.0424,-4.0452,-4.0476,0,0,0,0,0,-3.9447,-3.9598,-3.9564,-3.9589,-3.971,-3.9822,-3.9837,-3.981,-3.9736,-3.9808,-3.9815,-3.9755,-3.9981,-3.9899,-3.9925,-4.0027,-4.0252,-4.0268,-4.0283,-4.0413,-4.0447,-4.0475,0,0,0,0,0,0,-3.9573,-3.9601,-3.9564,-3.9731,-3.9775,-3.9803,-3.9892,-3.9847,-3.9913,-3.9898,-3.9861,-3.9872,-4.0021,-4.0037,-3.9946,-4.021,-4.0104,-4.0126,-4.0194,-4.0226,-4.0251,-4.0245,-3.9831,0,0,0,0,0,-3.9621,-3.971,-3.9729,-3.9874,-3.9898,-3.9892,-3.9939,-3.9915,-3.9959,-3.9977,-3.9994,-4.0039,-4.012,-4.0174,-4.0248,-4.0426,-4.0433,-4.0509,-4.0535,-4.0556,-4.0575,-4.0671,-4.0705,-4.0342,-4.0342,-4.0342,0,0,-3.972,-3.9746,-3.9804,-3.99,-3.9932,-4.0024,-3.9908,-4.0011,-4.0079,-3.9992,-4.0126,-4.014,-4.0188,-4.0348,-4.0419,-4.0366,-4.0677,-4.0576,-4.0593,-4.06,-4.069,-4.0725,-4.0755,-4.0353,-4.0351,-4.0349,0,0,-3.9947,-3.9976,-4.01,-4.0134,-4.0183,-4.0178,-4.0208,-4.0243,-4.025,-4.0383,-4.032,-4.04,-4.054,-4.0577,-4.0614,-4.0855,-4.0803,-4.0881,-4.1016,-4.1109,-4.1138,-4.1163,-4.125,-4.1281,-4.0899,-4.09,-4.09,0,-4.0063,-4.0201,-4.0169,-4.0277,-4.0321,-4.0248,-4.0373,-4.0407,-4.0479,-4.0511,-4.0451,-4.0625,-4.0651,-4.0819,-4.0878,-4.091,-4.0943,-4.0876,-4.1136,-4.1161,-4.1184,-4.1267,-4.1299,-4.0909,-4.0908,-4.0907,-4.0906,0,-4.0341,-4.0438,-4.0532,-4.0604,-4.0658,-4.0774,-4.076,-4.0819,-4.0791,-4.0792,-4.0929,-4.0958,-4.1038,-4.1075,-4.1048,-4.124,-4.1206,-4.1142,-4.1035,-4.1229,-4.1305,-4.1337,-4.0922,-4.0919,-4.0916,-4.0914,0,0,-4.0651,-4.0704,-4.074,-4.0771,-4.082,-4.0894,-4.1006,-4.1085,-4.1137,-4.1188,-4.1282,-4.1402,-4.1343,-4.1385,-4.1361,-4.1443,-4.1634,-4.1369,-4.137,-4.1418,-4.1847,-4.1895,-4.1932,-4.1599,-4.1605,-4.161,-4.1843,0,-4.088,-4.1076,-4.1051,-4.1239,-4.1328,-4.1259,-4.1357,-4.1398,-4.1402,-4.1477,-4.1481,-4.1567,-4.1483,-4.1508,-4.1586,-4.1594,-4.1719,-4.1577,-4.1686,-4.169,-4.1677,-4.1972,-4.2023,-4.2242,-4.1873,-4.1878,-4.1882,0,-4.1173,-4.1236,-4.1433,-4.1469,-4.1505,-4.1594,-4.1664,-4.1737,-4.1781,-4.1778,-4.1826,-4.1787,-4.19,-4.1791,-4.1945,-4.1849,-4.1892,-4.1903,-4.191,-4.192,-4.1798,-4.199,-4.2311,-4.2345,-4.1929,-4.1925,-4.1921,0,-4.138,-4.1514,-4.1649,-4.1678,-4.1723,-4.1787,-4.1809,-4.1847,-4.1896,-4.1957,-4.1988,-4.2062,-4.2102,-4.216,-4.2142,-4.2064,-4.2301,-4.219,-4.2302,-4.2303,-4.2355,-4.2352,-4.2688,-4.2383,-4.2382,-4.2381,-4.2381,0,-4.1638,-4.1761,-4.1743,-4.1826,-4.1962,-4.1932,-4.2067,-4.208,-4.2115,-4.22,-4.2144,-4.2224,-4.2196,-4.2274,-4.2261,-4.2391,-4.241,-4.2411,-4.2406,-4.2416,-4.2416,-4.2444,-4.2429,-4.239,-4.2388,-4.2386,-4.2385,0,-4.1893,-4.1885,-4.2028,-4.2059,-4.207,-4.2169,-4.2195,-4.2273,-4.2273,-4.238,-4.2404,-4.2404,-4.2493,-4.2481,-4.2581,-4.2571,-4.2734,-4.271,-4.272,-4.2714,-4.2827,-4.2817,-4.3193,-4.3241,-4.2904,-4.2907,-4.291,0,-4.2058,-4.2151,-4.2193,-4.2246,-4.2272,-4.2358,-4.2408,-4.2382,-4.2436,-4.2494,-4.2566,-4.265,-4.2717,-4.2863,-4.2871,-4.2947,-4.2925,-4.3052,-4.2936,-4.2944,-4.2928,-4.2923,-4.2932,-4.3075,-4.3079,-4.3082,-4.3085,0,-4.2353,-4.2344,-4.2419,-4.2493,-4.2554,-4.261,-4.2661,-4.2708,-4.2686,-4.275,-4.2841,-4.2893,-4.2995,-4.308,-4.3152,-4.3173,-4.3126,-4.3121,-4.3151,-4.3163,-4.3164,-4.3165,-4.2782,-4.3113,-4.311,-4.3108,-4.3106,-4.3105,-4.2568,-4.2648,-4.269,-4.2774,-4.281,-4.2859,-4.2934,-4.2944,-4.302,-4.3101,-4.3081,-4.3185,-4.3227,-4.3318,-4.3348,-4.3428,-4.3381,-4.3424,-4.3435,-4.3447,-4.346,-4.3151,-4.3441,-4.344,-4.3439,-4.3438,-4.3438,0,-4.286,-4.2883,-4.2962,-4.3035,-4.3102,-4.3052,-4.3106,-4.3165,-4.3257,-4.3301,-4.3367,-4.3473,-4.3555,-4.357,-4.3648,-4.371,-4.369,-4.3731,-4.3726,-4.3732,-4.3497,-4.3464,-4.3746,-4.3746,-4.3746,-4.3746,-4.3746,-4.3745,-4.302,-4.3152,-4.3149,-4.3299,-4.3322,-4.3423,-4.3458,-4.3503,-4.3538,-4.3658,-4.3726,-4.3736,-4.3768,-4.3848,-4.3922,-4.3924,-4.3955,-4.4005,-4.3999,-4.3779,-4.3749,-4.3719,-4.3688,-4.4012,-4.4013,-4.4227,-4.4229,-4.4231]},{"header":{"parameterUnit":"m.s-1","parameterCategory":1,"la1":30.2991,"la2":30.254,"lo1":-89.0895,"lo2":-89.0444,"dy":0.0017,"dx":0.0017,"nx":28,"ny":28,"refTime":"2023-10-01T21:00:00:Z","depth":0,"parameterNumber":3,"parameterNumberName":"V-component_of_WINDS"},"data":[0,0,0,0,0,0,0,0,0,0,0,0,0,0,0,0,0,0,0,0,0,0,0,0,0,0,0,0,0,0,0,0,0,0,0,0,0,0,0,0,0,0,0,0,0,0,0,0,0,0,0,0,0,0,0,0,0,0,-1.6103,-1.6102,0,-1.6042,-1.6042,-1.6041,-1.6044,-1.6045,-1.6045,-1.6046,-1.5982,-1.598,-1.5977,0,0,0,0,0,0,0,0,0,0,0,0,0,-1.6215,-1.6213,-1.6103,-1.6102,-1.6101,-1.6043,-1.6042,-1.6041,-1.6044,-1.6045,-1.6046,-1.6047,-1.5983,-1.598,-1.5977,0,0,0,0,0,0,0,0,0,0,0,0,0,-1.6162,-1.6212,-1.6103,-1.6096,-1.6094,-1.6043,-1.6042,-1.6041,-1.6043,-1.6045,-1.6046,-1.6047,-1.5984,-1.598,-1.5977,-1.5928,0,0,-1.5965,-1.5963,0,0,0,0,0,0,0,0,-1.6165,-1.6157,-1.6097,-1.6096,-1.6094,-1.6052,-1.6058,-1.6003,-1.6043,-1.6063,-1.6046,-1.6048,-1.6004,-1.5999,-1.5985,-1.5925,-1.5922,-1.5965,-1.5962,-1.5961,-1.596,0,0,0,0,0,0,0,-1.6168,-1.616,-1.6079,-1.6096,-1.6095,-1.6094,-1.6087,-1.6047,-1.6027,-1.6061,-1.6061,-1.6054,-1.6004,-1.5988,-1.5983,-1.5921,-1.5965,-1.5961,-1.5959,-1.5958,-1.5812,-1.5811,0,0,0,0,0,0,-1.6174,-1.6163,-1.6081,-1.6077,-1.6133,-1.6091,-1.6084,-1.6064,-1.6027,-1.6023,-1.6053,-1.6054,-1.5994,-1.5988,-1.5981,-1.5917,-1.5961,-1.5957,-1.5955,-1.5814,-1.5812,-1.581,0,0,0,0,0,0,-1.6177,-1.6167,-1.6083,-1.612,-1.6109,-1.6087,-1.6065,-1.6062,-1.6047,-1.6021,-1.6017,-1.6041,-1.5995,-1.5986,-1.594,-1.5915,-1.5956,-1.5952,-1.5816,-1.5813,-1.5811,-1.5792,0,0,0,0,0,0,-1.618,-1.6168,-1.615,-1.612,-1.6107,-1.6045,-1.6064,-1.606,-1.6041,-1.6042,-1.6009,-1.6005,-1.5995,-1.5945,-1.5936,-1.5911,-1.5949,-1.5818,-1.5815,-1.5812,-1.5795,-1.5789,-1.5785,0,0,0,0,0,-1.6184,-1.6148,-1.6149,-1.6139,-1.6085,-1.6043,-1.6036,-1.6026,-1.6039,-1.602,-1.6003,-1.6006,-1.592,-1.5941,-1.593,-1.5903,-1.5819,-1.5816,-1.5812,-1.5797,-1.579,-1.5785,0,0,0,0,0,0,-1.6176,-1.6144,-1.6145,-1.6099,-1.6074,-1.6044,-1.602,-1.602,-1.599,-1.5993,-1.5981,-1.5973,-1.5926,-1.5911,-1.5934,-1.5851,-1.5871,-1.5865,-1.5863,-1.5857,-1.5852,-1.5855,-1.5946,0,0,0,0,0,-1.6169,-1.6139,-1.6112,-1.6073,-1.6061,-1.6042,-1.6024,-1.6018,-1.5991,-1.5981,-1.596,-1.5933,-1.5899,-1.5878,-1.5846,-1.5793,-1.5783,-1.5769,-1.5764,-1.576,-1.5754,-1.572,-1.5712,-1.5798,-1.5798,-1.5798,0,0,-1.6154,-1.6133,-1.6115,-1.6071,-1.6051,-1.6018,-1.6034,-1.5999,-1.5973,-1.5975,-1.5929,-1.5913,-1.5882,-1.5831,-1.5807,-1.5816,-1.5728,-1.5755,-1.5752,-1.5749,-1.5716,-1.5708,-1.57,-1.5796,-1.5796,-1.5797,0,0,-1.6109,-1.6092,-1.6055,-1.6035,-1.6004,-1.5991,-1.5982,-1.5952,-1.5941,-1.5895,-1.5894,-1.5863,-1.5807,-1.5783,-1.5763,-1.5706,-1.5706,-1.5696,-1.5668,-1.5635,-1.5628,-1.5622,-1.5597,-1.5589,-1.569,-1.569,-1.569,0,-1.6094,-1.6045,-1.6037,-1.6,-1.5979,-1.598,-1.5941,-1.5921,-1.5881,-1.5865,-1.5877,-1.5803,-1.5782,-1.5723,-1.5709,-1.5695,-1.5681,-1.5698,-1.563,-1.5624,-1.5618,-1.5594,-1.5585,-1.5689,-1.5689,-1.5689,-1.5689,0,-1.6026,-1.5992,-1.5966,-1.5927,-1.5903,-1.5866,-1.5849,-1.5826,-1.5822,-1.5807,-1.5758,-1.5733,-1.5693,-1.568,-1.5676,-1.5619,-1.5625,-1.5633,-1.5652,-1.5609,-1.5586,-1.5577,-1.5687,-1.5688,-1.5688,-1.5688,0,0,-1.5976,-1.593,-1.592,-1.59,-1.5864,-1.5837,-1.5798,-1.576,-1.5738,-1.571,-1.5675,-1.5625,-1.5632,-1.561,-1.5603,-1.5574,-1.5524,-1.5586,-1.5585,-1.5571,-1.5454,-1.5445,-1.5435,-1.5525,-1.5524,-1.5522,-1.5456,0,-1.5924,-1.5856,-1.5845,-1.5784,-1.575,-1.5748,-1.5714,-1.5687,-1.5671,-1.5638,-1.5622,-1.5585,-1.5599,-1.5584,-1.5556,-1.5536,-1.55,-1.5542,-1.5489,-1.5487,-1.5493,-1.5424,-1.5416,-1.5354,-1.5447,-1.5446,-1.5445,0,-1.5855,-1.5824,-1.5759,-1.5724,-1.5709,-1.5679,-1.564,-1.561,-1.5578,-1.5569,-1.5542,-1.5538,-1.5494,-1.5516,-1.5454,-1.5482,-1.546,-1.5447,-1.5444,-1.5436,-1.5461,-1.541,-1.5335,-1.5324,-1.5431,-1.5432,-1.5433,0,-1.5819,-1.5761,-1.5714,-1.5697,-1.5657,-1.5634,-1.5616,-1.5585,-1.5561,-1.5528,-1.5511,-1.5473,-1.5451,-1.542,-1.5404,-1.5423,-1.5341,-1.5364,-1.5329,-1.5329,-1.531,-1.531,-1.5225,-1.5302,-1.5302,-1.5302,-1.5302,0,-1.5761,-1.5721,-1.5696,-1.5667,-1.562,-1.5607,-1.5561,-1.5543,-1.5515,-1.548,-1.5477,-1.5443,-1.5426,-1.5389,-1.5377,-1.5324,-1.5315,-1.5304,-1.53,-1.5302,-1.5303,-1.5285,-1.5287,-1.5299,-1.53,-1.53,-1.5301,0,-1.5713,-1.5696,-1.5643,-1.5608,-1.5598,-1.5564,-1.5533,-1.5503,-1.5487,-1.5442,-1.5431,-1.5405,-1.5362,-1.5343,-1.529,-1.5281,-1.5219,-1.5221,-1.523,-1.5228,-1.5192,-1.5194,-1.509,-1.5073,-1.5164,-1.5163,-1.5163,0,-1.5676,-1.5644,-1.5604,-1.5581,-1.5561,-1.5524,-1.5498,-1.5484,-1.5457,-1.5416,-1.539,-1.5346,-1.531,-1.5239,-1.5214,-1.5172,-1.517,-1.5137,-1.5164,-1.5165,-1.5164,-1.5165,-1.5159,-1.5131,-1.513,-1.5129,-1.5128,0,-1.5609,-1.5601,-1.5566,-1.5526,-1.5495,-1.5463,-1.5432,-1.5412,-1.5392,-1.5362,-1.5317,-1.5289,-1.5233,-1.5187,-1.5143,-1.5122,-1.512,-1.512,-1.5109,-1.5109,-1.5113,-1.5106,-1.5212,-1.5122,-1.5123,-1.5123,-1.5124,-1.5124,-1.5562,-1.5532,-1.5499,-1.5458,-1.5432,-1.5402,-1.537,-1.5349,-1.5312,-1.5264,-1.5258,-1.5208,-1.5173,-1.5113,-1.509,-1.5049,-1.5057,-1.5043,-1.5038,-1.5033,-1.5029,-1.5123,-1.5042,-1.5042,-1.5042,-1.5042,-1.5042,0,-1.5492,-1.547,-1.5433,-1.5387,-1.5354,-1.5356,-1.532,-1.5292,-1.5248,-1.5216,-1.5179,-1.5125,-1.508,-1.5051,-1.5005,-1.4977,-1.4975,-1.4965,-1.4965,-1.4959,-1.5027,-1.5039,-1.4968,-1.4968,-1.4968,-1.4968,-1.4968,-1.4968,-1.5452,-1.5399,-1.5387,-1.532,-1.5298,-1.5249,-1.5227,-1.5198,-1.5171,-1.511,-1.5073,-1.5055,-1.5022,-1.4973,-1.493,-1.4923,-1.4904,-1.4893,-1.4885,-1.4948,-1.4955,-1.4963,-1.4974,-1.489,-1.489,-1.4821,-1.482,-1.482]}]]